Regional Weather Roundup
Issued by NWS

Home | Current Version | Previous Version | Text Only | Print | Product List | Glossary On
Versions: 1 2 3 4 5 6 7 8 9 10 11 12 13 14 15 16 17 18 19 20 21 22 23 24 25 26 27 28 29 30 31 32 33 34 35 36 37 38 39 40 41 42 43 44 45 46 47 48 49 50
000
ASUS44 KOUN 210410
RWROK

WEATHER ROUNDUP FOR OKLAHOMA
NATIONAL WEATHER SERVICE NORMAN OK
1000 PM CST MON FEB 20 2017

NOTE: "FAIR" INDICATES FEW OR NO CLOUDS BELOW 12,000 FEET WITH NO
      SIGNIFICANT WEATHER AND/OR OBSTRUCTIONS TO VISIBILITY.

OKZ001>007-009>012-014-015-017-210500-
NORTHWEST OKLAHOMA AND THE PANHANDLE

CITY           SKY/WX    TMP DP  RH WIND       PRES   REMARKS
GAGE           CLEAR     44  25  47 NW6       30.00S
GUYMON         CLEAR     48  12  23 N5        30.06S
ENID/WOODRING  CLEAR     52  52 100 NW6       29.92S
$$

OKZ016-021>023-033>039-044-045-210500-
SOUTHWEST OKLAHOMA

CITY           SKY/WX    TMP DP  RH WIND       PRES   REMARKS
LAWTON/REGL    CLEAR     55  48  77 N6        29.94S
LAWTON/FT SILL CLEAR     55  49  79 N5        29.93R
FREDERICK      CLEAR     53  44  71 N10       29.93R
CLINTON        CLEAR     51  29  42 NW9       29.98S
HOBART         CLEAR     52  36  54 NW10      29.97R
ALTUS AFB      CLEAR     54  30  40 N8        29.96R
$$

OKZ018>020-024>031-210500-
CENTRAL OKLAHOMA

CITY           SKY/WX    TMP DP  RH WIND       PRES   REMARKS
OKLAHOMA CITY  PTCLDY    52  50  93 SW3       29.92S
OKC/WILEY POST MOCLDY    56  52  86 S3        29.92S
OKC/TINKER AFB CLEAR     53  50  90 S5        29.91S
STILLWATER     CLEAR     49  48  97 CALM      29.92S
GUTHRIE        CLEAR     52  50  93 SE5       29.92S
$$

OKZ008-013-054>072-210500-
NORTHEAST OKLAHOMA

CITY           SKY/WX    TMP DP  RH WIND       PRES   REMARKS
TULSA          PTCLDY    57  55  93 S5        29.90F
TULSA/JONES    PTCLDY    51  50  96 CALM      29.92F
PONCA CITY     CLEAR     48  45  89 CALM      29.92F
BARTLESVILLE   CLOUDY    49  48  97 CALM      29.93S
MUSKOGEE       PTCLDY    57  55  93 SW6       29.93S
$$

OKZ032-040>043-046>053-073>077-210500-
SOUTH CENTRAL/SOUTHEAST OKLAHOMA

CITY           SKY/WX    TMP DP  RH WIND       PRES   REMARKS
ARDMORE/DWNTWN FOG       50  46  87 CALM      29.92F VSB 1/2
MCALESTER      PTCLDY    51  48  89 CALM      29.93S
$$





USA.gov is the U.S. government's official web portal to all federal, state and local government web resources and services.